Location: Diebersbach
(48.5163°N, 8.0558°E)
Time: 09:32:26
(UTC+00:00)

USA 305 - Visible Passes

Search period start: 28 October 2021 00:00
Search period end: 07 November 2021 00:00
Orbit: 558 x 576 km, 54.0° (Epoch: 22 October)

Date Brightness Start Highest point End Pass type
(mag) Time Alt. Az. Time Alt. Az. Time Alt. Az.
28 Oct 5.9 02:30:44 13° E 02:30:44 13° E 02:31:22 10° ENE visible
28 Oct 2.7 04:06:46 61° W 04:07:23 76° NNW 04:11:36 10° ENE visible
29 Oct 5.9 02:31:11 14° ENE 02:31:11 14° ENE 02:31:48 10° ENE visible
29 Oct 2.9 04:07:13 57° NW 04:07:39 61° NNW 04:11:50 10° ENE visible
30 Oct 5.9 02:31:34 13° ENE 02:31:34 13° ENE 02:32:08 10° ENE visible
30 Oct 3.1 04:07:36 49° NW 04:07:58 51° NNW 04:12:05 10° ENE visible
31 Oct 6.0 02:31:54 13° ENE 02:31:54 13° ENE 02:32:24 10° ENE visible
31 Oct 3.4 04:07:56 43° NNW 04:08:17 44° NNW 04:12:19 10° ENE visible
01 Nov 6.0 02:32:12 13° ENE 02:32:12 13° ENE 02:32:37 10° ENE visible
01 Nov 3.5 04:08:13 40° NNW 04:08:36 41° N 04:12:36 10° ENE visible
02 Nov 6.0 02:32:29 12° ENE 02:32:29 12° ENE 02:32:49 10° ENE visible
02 Nov 3.6 04:08:30 37° NNW 04:08:56 39° N 04:12:53 10° ENE visible
03 Nov 6.1 02:32:44 12° ENE 02:32:44 12° ENE 02:33:01 10° ENE visible
03 Nov 3.7 04:08:45 37° NNW 04:09:15 38° N 04:13:12 10° ENE visible
04 Nov 6.1 02:32:59 11° ENE 02:32:59 11° ENE 02:33:13 10° ENE visible
04 Nov 3.7 04:09:00 37° NNW 04:09:34 39° N 04:13:32 10° ENE visible
04 Nov 2.9 05:45:36 10° WNW 05:49:49 80° NNE 05:54:02 10° ESE visible
05 Nov 6.1 02:33:14 11° ENE 02:33:14 11° ENE 02:33:25 10° ENE visible
05 Nov 3.6 04:09:15 40° NNW 04:09:51 42° N 04:13:52 10° E visible
05 Nov 2.9 05:45:47 10° WNW 05:50:00 80° SSW 05:54:12 10° SE visible
06 Nov 6.1 02:33:31 11° ENE 02:33:31 11° ENE 02:33:39 10° ENE visible
06 Nov 3.4 04:09:32 44° NNW 04:10:08 47° NNE 04:14:12 10° E visible
06 Nov 3.1 05:45:59 10° WNW 05:50:07 60° SW 05:54:15 10° SE visible
